User: anonymous   Login
Location: Caltech
(34.1382°N, 118.1253°W)
Time: 01:47:53
(UTC-07:00)
Language:

Cosmos 2084 - Orbit

View from above orbital plane
View from above orbital plane
View from above satellite
View from above satellite

Ground track
Ground track

The orbit data is extracted from the following two-line orbital elements,

1 20663U 90055A   15142.64081617  .00000769  00000-0  93202-4 0  9994
2 20663 062.7949 231.0900 0075496 007.8394 352.3859 14.90441864346990
Epoch (UTC): 22 May 2015 15:22:46
Eccentricity: 0.0075496
inclination: 62.7949°
perigee height: 544 km
apogee height: 649 km
right ascension of ascending node: 231.0900°
argument of perigee: 7.8394°
revolutions per day: 14.90441864
mean anomaly at epoch: 352.3859°
orbit number at epoch: 34699

The dashed part of the orbit path shows where the satellite is in the earth's shadow,  

DLR